Regional Weather Roundup
Issued by NWS

Home | Current Version | Previous Version | Text Only | Print | Product List | Glossary On
Versions: 1 2 3 4 5 6 7 8 9 10 11 12 13 14 15 16 17 18 19 20 21 22 23 24 25 26 27 28 29 30 31 32 33 34 35 36 37 38 39 40 41 42 43 44 45 46 47 48 49 50
000
ASUS43 KMKX 202221
RWRWI

WISCONSIN REGIONAL WEATHER ROUNDUP
NATIONAL WEATHER SERVICE MILWAUKEE/SULLIVAN WI
500 PM CDT SUN AUG 20 2017

NOTE: "FAIR" INDICATES FEW OR NO CLOUDS BELOW 12,000 FEET WITH NO
SIGNIFICANT WEATHER AND/OR OBSTRUCTIONS TO VISIBILITY.

WIZ001-002-006>008-014>016-023>028-202300-
NORTHWEST WISCONSIN

CITY           SKY/WX    TMP DP  RH WIND       PRES   REMARKS
SUPERIOR ARPT    N/A     78  62  57 W8        29.91R HX  80
ASHLAND        MOSUNNY   76  63  64 W7        29.91R
HAYWARD        MOSUNNY   78  64  61 NW3       29.94R HX  80
SIREN          CLOUDY    79  64  59 W3        29.94S HX  80
CUMBERLAND     MOSUNNY   77  64  65 W13       29.95R
RICE LAKE      MOSUNNY   80  69  67 SW7       29.95R HX  83
CHETEK         SUNNY     82  70  68 W6        29.93S HX  85
LADYSMITH      MOSUNNY   80  69  70 SW5       29.96S HX  82
EAU CLAIRE     MOSUNNY   84  65  52 SW12      29.93R HX  86
MENOMONIE      MOSUNNY   83  67  57 SW9       29.93S HX  86
NEW RICHMOND   SUNNY     82  65  57 W6        29.94S HX  83
OSCEOLA        MOSUNNY   81  66  60 W6        29.96S HX  83
$$

WIZ003>005-009-010-017-018-202300-
NORTH CENTRAL WISCONSIN

CITY           SKY/WX    TMP DP  RH WIND       PRES   REMARKS
MANITOWISH WTR PTSUNNY   78  69  71 W9        29.94R HX  81
ARBOR VITAE    SUNNY     80  68  66 W10       29.94R HX  82
WOODRUFF       SUNNY     80  68  66 W10       29.94R HX  82
RHINELANDER    CLOUDY    79  67  66 SW9       29.95R HX  81
EAGLE RIVER    MOSUNNY   79  64  61 W13G25    29.93S HX  81
LAND O LAKES   MOSUNNY   81  65  57 W8        29.94R HX  83
PHILLIPS       CLOUDY    78  69  72 SW8       29.94R HX  80
TOMAHAWK         N/A     77  64  64 W7        29.96R
MEDFORD        MOSUNNY   79  65  61 W12G17    29.96R HX  81
MERRILL        SUNNY     82  66  57 W10G17    29.95S HX  85
$$

WIZ029-030-035-036-043>047-202300-
CENTRAL WISCONSIN

CITY           SKY/WX    TMP DP  RH WIND       PRES   REMARKS
WAUSAU         SUNNY     82  65  56 SW9       29.94S HX  84
MOSINEE        MOSUNNY   81  66  61 SW12      29.98R HX  83
MARSHFIELD     PTSUNNY   82  64  54 W8        29.96R HX  83
STEVENS POINT  PTSUNNY   80  64  59 SW6       29.97S HX  81
WAUPACA        CLOUDY    83  65  54 SW10      29.97R HX  85
WAUTOMA        MOSUNNY   81  67  62 S6        29.97S HX  83
WISC RAPIDS    PTSUNNY   83  66  56 SW6       29.98R HX  85
CAMP DOUGLAS   MOSUNNY   82  66  57 S3        29.96F HX  85
$$

WIZ011>013-019>022-031-037>040-048>050-202300-
NORTHEAST WISCONSIN

CITY           SKY/WX    TMP DP  RH WIND       PRES   REMARKS
ANTIGO         SUNNY     80  64  58 W14G22    29.96S HX  81
SHAWANO        PTSUNNY   82  67  61 SW8       29.94S HX  84
OCONTO         CLOUDY    78  68  70 SW7       29.94R HX  80
STURGEON BAY   CLOUDY    74  68  81 S9        29.95
GREEN BAY      CLOUDY    79  71  76 S9        29.96S HX  82
MANITOWOC      CLOUDY    76  67  73 S12       29.98S
APPLETON       PTSUNNY   79  63  57 SW9       29.96S HX  80
CLINTONVILLE   PTSUNNY   81  66  61 SW9       29.95S HX  83
OSHKOSH        CLOUDY    79  65  62 VRB5      29.97S HX  81
$$

WIZ032>034-041-042-053>061-202300-
SOUTHWEST WISCONSIN

CITY           SKY/WX    TMP DP  RH WIND       PRES   REMARKS
LA CROSSE      SUNNY     89  65  44 NW5       29.94R HX  91
SPARTA         SUNNY     82  66  57 W3        29.96S HX  84
VIROQUA        SUNNY     81  68  64 CALM      29.99R HX  84
BOSCOBEL       SUNNY     84  67  56 VRB3      29.97R HX  86
PRAIRIE DU CHI SUNNY     82  62  50 S5        29.97R HX  83
PLATTEVILLE    CLOUDY    78  71  79 N12       30.00R HX  81
$$

WIZ056-057-062-063-064-067-068-202300-
SOUTH CENTRAL WISCONSIN

CITY           SKY/WX    TMP DP  RH WIND       PRES   REMARKS
REEDSBURG      MOSUNNY   79  66  65 SE3       29.97S HX  81
BARABOO/DELLS  MOSUNNY   81  62  52 CALM      29.98R HX  82
LONE ROCK      CLOUDY    80  69  69 SE7       29.98R HX  83
MINERAL POINT  MOSUNNY   81  70  69 E3        30.01R HX  84
MADISON        CLOUDY    79  68  69 SE7       29.98S HX  81
MIDDLETON      CLOUDY    81  67  63 E5        30.00R HX  83
WATERTOWN      CLOUDY    77  71  79 S3        29.99R
MONROE         DRIZZLE   73  68  83 SE9       29.99S
JANESVILLE     CLOUDY    81  68  65 SE10      29.99S HX  83
$$

WIZ051-052-058>065-066-070>072-202300-
SOUTHEAST WISCONSIN

CITY           SKY/WX    TMP DP  RH WIND       PRES   REMARKS
MILWAUKEE      CLOUDY    80  68  66 S9        30.00F HX  83
WAUKESHA       MOSUNNY   77  66  69 SW6       30.01F
MILWAUKEE/TIMM SUNNY     81  63  54 SW7       30.00F HX  82
RACINE         CLOUDY    78  67  68 S9        30.02F HX  80
KENOSHA        CLOUDY    80  67  64 SE9       30.01F HX  82
FOND DU LAC    CLOUDY    79  66  64 S7        29.98F HX  81
SHEBOYGAN      MOSUNNY   79  71  76 S12       29.99S HX  82
WEST BEND      CLOUDY    79  68  69 S5        30.00S HX  81
JUNEAU         CLOUDY    78  66  66 CALM      30.00F
$$

LSZ147-162-202300-
LAKE SUPERIOR

STATION/POSITION TIME  TEMP    WIND        PRES    WAVE
                       AIR SEA DIR/SP/G            HT/PER
                 (UTC) (F)     (DEG/KT/KT) (MB)    (FT/S)
W MID LAKE BUOY  2150   64 60  250/ 12/ 14 1010.7R   2/ 3
DEVILS ISLAND    2200   70     240/ 16/ 18 1011.3R
SAXON HARBOR     2140   78     270/  6/ 10 1011.9R
$$

LMZ867-665-643>646-202300-
LAKE MICHIGAN

STATION/POSITION TIME  TEMP    WIND        PRES    WAVE
                       AIR SEA DIR/SP/G            HT/PER
                 (UTC) (F)     (DEG/KT/KT) (MB)    (FT/S)
S GREEN BAY BUOY 2200   75 72  200/ 14/ 16 1013.6F
N MID LAKE BUOY  2150   69 68  180/ 17/ 19 1014.0F   3/ 4
NORTHPORT PIER   2140   73     160/  8/ 14 1013.2F
KEWAUNEE LAKESHO 2154   69     180/ 11/ 12 1014.1S
SHEBOYGAN LAKESH 2200   71     180/ 15/ 16 1014.9F
PORT WASHINGTON  2130   75     190/  6/  9 1016.3F
ATWATER BUOY     2109   72 70  150/ 14/ 17 1015.7F
MILWAUKEE LAKESH 2200   72     150/ 14/ 15   N/A
S MID LAKE BUOY  2150   74 72  110/  6/  6 1016.3F   1/ 3
KENOSHA   LAKESH 2200   74     170/  8/  9 1015.9
$$

TC  - TEMPERATURE IN CELSIUS
VSB - VISIBILITY IN STATUTE MILES
WCI - WIND CHILL INDEX
HX  - HEAT INDEX





USA.gov is the U.S. government's official web portal to all federal, state and local government web resources and services.